GW6033 Weather Reports


time (UTC)temp
C
wind
direction
speed
KPH
gust
KPH
rain 1hr
cm
rain 24hr
cm
rain mn
cm
humidity
%
barometer
mb
20260906214347 33 44 4.8 8.0 0.00 0.00 0.00 30 1018.3
20260906213846 32 303 3.2 3.2 0.00 0.00 0.00 32 1018.3
20260906213341 32 197 4.8 8.0 0.00 0.00 0.00 32 1018.6
20260906212839 33 243 0.0 0.0 0.00 0.00 0.00 30 1018.5
20260906212334 33 152 6.4 11.3 0.00 0.00 0.00 30 1018.7
20260906211834 34 225 3.2 4.8 0.00 0.00 0.00 30 1018.8
20260906211330 33 244 1.6 1.6 0.00 0.00 0.00 31 1018.6
20260906210825 34 235 1.6 1.6 0.00 0.00 0.00 31 1018.8
20260906210324 34 210 3.2 4.8 0.00 0.00 0.00 30 1019.0
20260906205820 33 239 0.0 1.6 0.00 0.00 0.00 30 1018.9
20260906205316 33 328 4.8 4.8 0.00 0.00 0.00 30 1019.2
20260906204812 33 219 0.0 1.6 0.00 0.00 0.00 31 1019.2
20260906204310 34 19 6.4 11.3 0.00 0.00 0.00 30 1019.2
20260906203810 33 318 1.6 3.2 0.00 0.00 0.00 30 1019.2
20260906203306 34 301 1.6 3.2 0.00 0.00 0.00 30 1019.6
20260906202802 35 241 0.0 1.6 0.00 0.00 0.00 29 1019.2
20260906202301 34 301 3.2 4.8 0.00 0.00 0.00 29 1019.3
20260906201756 33 167 1.6 1.6 0.00 0.00 0.00 28 1019.4
20260906201256 33 220 1.6 1.6 0.00 0.00 0.00 29 1019.5
20260906200752 33 240 0.0 0.0 0.00 0.00 0.00 30 1019.4
20260906200247 33 288 0.0 1.6 0.00 0.00 0.00 30 1019.5
20260906195743 33 201 3.2 3.2 0.00 0.00 0.00 30 1019.8
20260906195239 33 250 3.2 4.8 0.00 0.00 0.00 31 1019.6
20260906194735 33 254 0.0 1.6 0.00 0.00 0.00 31 1019.8
20260906194230 32 265 1.6 3.2 0.00 0.00 0.00 31 1019.8
20260906193725 32 205 4.8 4.8 0.00 0.00 0.00 32 1020.1
20260906193225 31 196 4.8 8.0 0.00 0.00 0.00 33 1020.0
20260906192721 32 106 6.4 9.7 0.00 0.00 0.00 33 1020.0
20260906192216 32 220 1.6 1.6 0.00 0.00 0.00 32 1020.2
20260906191715 32 296 1.6 1.6 0.00 0.00 0.00 33 1020.2
20260906191210 31 224 1.6 1.6 0.00 0.00 0.00 33 1020.5
20260906190710 32 159 6.4 8.0 0.00 0.00 0.00 31 1020.3
20260906190204 32 247 0.0 0.0 0.00 0.00 0.00 33 1020.6
20260906185704 30 263 0.0 0.0 0.00 0.00 0.00 34 1020.7
20260906185202 31 80 1.6 3.2 0.00 0.00 0.00 34 1020.7
20260906184657 30 275 3.2 3.2 0.00 0.00 0.00 35 1020.9
20260906184153 31 162 3.2 3.2 0.00 0.00 0.00 34 1021.1
20260906183648 31 278 0.0 1.6 0.00 0.00 0.00 34 1021.4
20260906183144 31 251 0.0 1.6 0.00 0.00 0.00 35 1021.1
20260906182644 30 257 3.2 3.2 0.00 0.00 0.00 35 1021.5
20260906182140 30 270 3.2 3.2 0.00 0.00 0.00 37 1021.4
20260906181635 29 265 0.0 1.6 0.00 0.00 0.00 40 1021.5
20260906181131 29 273 1.6 3.2 0.00 0.00 0.00 40 1021.8
20260906180627 28 252 0.0 1.6 0.00 0.00 0.00 41 1021.8
20260906180127 28 264 4.8 4.8 0.00 0.00 0.00 40 1021.8
20260906175625 28 255 1.6 3.2 0.00 0.00 0.00 40 1022.0
20260906175120 28 235 1.6 1.6 0.00 0.00 0.00 42 1022.1
20260906174618 28 77 3.2 3.2 0.00 0.00 0.00 42 1022.4
20260906174113 27 255 0.0 0.0 0.00 0.00 0.00 44 1022.5
20260906173608 27 255 0.0 0.0 0.00 0.00 0.00 46 1022.5
20260906173104 27 265 0.0 0.0 0.00 0.00 0.00 45 1022.1
20260906172603 27 302 0.0 0.0 0.00 0.00 0.00 46 1022.7
20260906172059 26 301 0.0 1.6 0.00 0.00 0.00 48 1022.4
20260906171559 26 256 3.2 3.2 0.00 0.00 0.00 49 1022.7
20260906171054 26 258 6.4 8.0 0.00 0.00 0.00 49 1022.6
20260906170550 25 260 1.6 1.6 0.00 0.00 0.00 50 1022.8
20260906170049 26 272 3.2 4.8 0.00 0.00 0.00 48 1022.9
20260906165547 25 250 1.6 1.6 0.00 0.00 0.00 50 1022.9
20260906165047 25 237 1.6 3.2 0.00 0.00 0.00 50 1022.9
20260906164546 26 259 3.2 4.8 0.00 0.00 0.00 49 1022.9
20260906164042 26 193 3.2 3.2 0.00 0.00 0.00 49 1023.2
20260906163537 25 256 1.6 1.6 0.00 0.00 0.00 54 1023.2
20260906163033 26 343 0.0 1.6 0.00 0.00 0.00 51 1023.1
20260906162530 25 277 0.0 0.0 0.00 0.00 0.00 53 1022.8
20260906162025 23 300 0.0 0.0 0.00 0.00 0.00 54 1022.9
20260906161520 23 297 3.2 3.2 0.00 0.00 0.00 57 1023.1
20260906161019 25 257 1.6 3.2 0.00 0.00 0.00 56 1022.9
20260906160518 23 312 0.0 0.0 0.00 0.00 0.00 60 1022.8
20260906160017 23 301 0.0 1.6 0.00 0.00 0.00 62 1022.7
20260906155514 22 276 0.0 1.6 0.00 0.00 0.00 64 1022.9
20260906155010 23 273 0.0 0.0 0.00 0.00 0.00 64 1022.9
20260906154506 22 277 0.0 0.0 0.00 0.00 0.00 65 1023.1
20260906154004 22 251 0.0 1.6 0.00 0.00 0.00 67 1023.1
20260906153503 22 280 1.6 1.6 0.00 0.00 0.00 67 1022.8
20260906152958 21 276 0.0 3.2 0.00 0.00 0.00 68 1022.9
20260906152453 22 277 0.0 0.0 0.00 0.00 0.00 68 1023.2
20260906151952 21 264 3.2 3.2 0.00 0.00 0.00 69 1023.2
20260906151448 21 244 1.6 1.6 0.00 0.00 0.00 70 1023.2
20260906150943 21 236 3.2 3.2 0.00 0.00 0.00 69 1023.2
20260906150439 21 257 0.0 0.0 0.00 0.00 0.00 70 1023.2
20260906145938 20 244 1.6 1.6 0.00 0.00 0.00 72 1023.1
20260906145437 20 242 3.2 3.2 0.00 0.00 0.00 73 1023.2
20260906144932 20 252 1.6 3.2 0.00 0.00 0.00 73 1023.1
20260906144426 20 279 0.0 0.0 0.00 0.00 0.00 73 1023.2
20260906143922 20 276 0.0 0.0 0.00 0.00 0.00 74 1023.1
20260906143418 20 280 1.6 3.2 0.00 0.00 0.00 76 1022.8
20260906142914 19 262 0.0 0.0 0.00 0.00 0.00 77 1023.1
20260906142413 19 251 0.0 1.6 0.00 0.00 0.00 77 1022.9
20260906141908 18 261 0.0 0.0 0.00 0.00 0.00 79 1022.9
20260906141402 18 263 4.8 4.8 0.00 0.00 0.00 80 1022.9
20260906140902 17 252 1.6 3.2 0.00 0.00 0.00 81 1023.2
20260906140356 17 256 1.6 1.6 0.00 0.00 0.00 82 1023.2
20260906135854 17 249 1.6 3.2 0.00 0.00 0.00 83 1022.9
20260906135354 17 261 1.6 1.6 0.00 0.00 0.00 83 1022.9
20260906134850 17 218 3.2 4.8 0.00 0.00 0.00 83 1022.9
20260906134344 17 258 1.6 3.2 0.00 0.00 0.00 82 1023.1
20260906133840 16 255 0.0 0.0 0.00 0.00 0.00 82 1022.9
20260906133336 16 246 0.0 0.0 0.00 0.00 0.00 82 1022.5
20260906132832 16 246 0.0 0.0 0.00 0.00 0.00 82 1022.8
20260906132326 16 247 0.0 0.0 0.00 0.00 0.00 82 1022.8
20260906131822 16 247 0.0 0.0 0.00 0.00 0.00 82 1022.6
20260906131317 16 246 0.0 0.0 0.00 0.00 0.00 83 1022.6
20260906130814 15 247 0.0 0.0 0.00 0.00 0.00 84 1022.5
20260906130312 15 247 0.0 0.0 0.00 0.00 0.00 84 1022.6
20260906125811 15 248 0.0 0.0 0.00 0.00 0.00 84 1022.5
20260906125309 15 248 0.0 0.0 0.00 0.00 0.00 84 1022.7
20260906124804 15 248 0.0 0.0 0.00 0.00 0.00 84 1022.7
20260906124300 15 247 0.0 0.0 0.00 0.00 0.00 84 1022.4
20260906123758 15 247 0.0 0.0 0.00 0.00 0.00 83 1022.5
20260906123254 15 247 0.0 0.0 0.00 0.00 0.00 83 1022.6
20260906122753 15 248 0.0 0.0 0.00 0.00 0.00 83 1022.4
20260906122249 15 248 0.0 0.0 0.00 0.00 0.00 82 1022.5
20260906121745 15 247 0.0 0.0 0.00 0.00 0.00 82 1022.2
20260906121241 15 248 0.0 0.0 0.00 0.00 0.00 82 1022.4
20260906120736 15 249 0.0 0.0 0.00 0.00 0.00 81 1022.2
20260906120228 15 249 0.0 0.0 0.00 0.00 0.00 81 1022.4
20260906115723 15 249 0.0 0.0 0.00 0.00 0.00 79 1022.5
20260906115223 15 249 0.0 0.0 0.00 0.00 0.00 78 1022.4
20260906114723 16 245 0.0 1.6 0.00 0.00 0.00 77 1022.2
20260906114218 16 250 0.0 0.0 0.00 0.00 0.00 78 1022.7
20260906113713 16 250 0.0 0.0 0.00 0.00 0.00 77 1022.6
20260906113213 16 250 0.0 0.0 0.00 0.00 0.00 77 1022.4
20260906112712 16 250 0.0 0.0 0.00 0.00 0.00 76 1022.4
20260906112210 16 250 0.0 0.0 0.00 0.00 0.00 76 1022.2
20260906111709 16 250 0.0 0.0 0.00 0.00 0.00 76 1022.4
20260906111204 16 250 0.0 0.0 0.00 0.00 0.00 76 1022.1
20260906110659 16 250 0.0 0.0 0.00 0.00 0.00 76 1022.4
20260906110154 16 250 0.0 0.0 0.00 0.00 0.00 75 1022.6
20260906105654 16 248 0.0 0.0 0.00 0.00 0.00 74 1022.2
20260906105150 16 252 0.0 0.0 0.00 0.00 0.00 74 1022.4
20260906104649 16 260 0.0 1.6 0.00 0.00 0.00 75 1022.0
20260906104148 16 261 0.0 0.0 0.00 0.00 0.00 74 1021.9
20260906103646 16 261 0.0 0.0 0.00 0.00 0.00 74 1022.0
20260906103143 16 261 0.0 0.0 0.00 0.00 0.00 75 1021.9
20260906102643 16 261 0.0 0.0 0.00 0.00 0.00 73 1021.6
20260906102142 17 261 0.0 0.0 0.00 0.00 0.00 72 1021.6
20260906101643 17 261 0.0 0.0 0.00 0.00 0.00 72 1021.9
20260906101142 17 261 0.0 0.0 0.00 0.00 0.00 72 1021.9
20260906100638 17 261 0.0 0.0 0.00 0.00 0.00 71 1022.1
20260906100134 17 263 0.0 0.0 0.00 0.00 0.00 72 1021.8
20260906095634 17 264 0.0 0.0 0.00 0.00 0.00 73 1021.8
20260906095129 17 264 0.0 0.0 0.00 0.00 0.00 72 1021.8
20260906094628 17 264 0.0 0.0 0.00 0.00 0.00 72 1021.9
20260906094124 17 264 0.0 0.0 0.00 0.00 0.00 71 1021.8
20260906093620 17 264 0.0 0.0 0.00 0.00 0.00 71 1021.5
20260906093119 17 264 0.0 0.0 0.00 0.00 0.00 71 1022.0
20260906092614 17 264 0.0 0.0 0.00 0.00 0.00 71 1021.8
20260906092110 17 265 0.0 0.0 0.00 0.00 0.00 71 1021.9
20260906091606 17 265 0.0 0.0 0.00 0.00 0.00 71 1021.6
20260906091103 17 265 0.0 0.0 0.00 0.00 0.00 70 1021.6
20260906090602 17 261 0.0 0.0 0.00 0.00 0.00 70 1022.0
20260906085601 17 264 0.0 0.0 0.00 0.00 0.00 70 1021.4
20260906085056 17 264 0.0 0.0 0.00 0.00 0.00 69 1021.5
20260906084551 18 264 0.0 0.0 0.00 0.00 0.00 68 1021.8
20260906084049 18 264 0.0 0.0 0.00 0.00 0.00 67 1021.4
20260906083546 18 264 0.0 0.0 0.00 0.00 0.00 66 1021.5
20260906083045 18 265 0.0 0.0 0.00 0.00 0.00 65 1021.9
20260906082540 18 264 0.0 0.0 0.00 0.00 0.00 64 1021.9
20260906082036 18 256 0.0 0.0 0.00 0.00 0.00 64 1022.1
20260906081532 19 256 0.0 0.0 0.00 0.00 0.00 63 1022.1
20260906081027 19 256 0.0 0.0 0.00 0.00 0.00 62 1022.1
20260906080524 20 255 0.0 0.0 0.00 0.00 0.00 60 1021.9
20260906080020 20 246 0.0 0.0 0.00 0.00 0.00 59 1021.9
20260906075519 20 255 0.0 0.0 0.00 0.00 0.00 58 1021.9
20260906075014 20 255 0.0 0.0 0.00 0.00 0.00 59 1022.0
20260906074509 20 255 0.0 0.0 0.00 0.00 0.00 57 1021.9
20260906074007 20 255 0.0 0.0 0.00 0.00 0.00 56 1021.5
20260906073502 20 265 0.0 0.0 0.00 0.00 0.00 57 1021.8
20260906072958 20 8 3.2 3.2 0.00 0.00 0.00 57 1021.4
20260906072453 20 253 0.0 0.0 0.00 0.00 0.00 57 1021.4
20260906071949 20 262 0.0 0.0 0.00 0.00 0.00 56 1021.4
20260906071445 21 248 0.0 0.0 0.00 0.00 0.00 55 1021.2
20260906070940 21 249 0.0 0.0 0.00 0.00 0.00 54 1021.2
20260906070437 21 234 1.6 1.6 0.00 0.00 0.00 53 1021.1
20260906065932 21 239 0.0 1.6 0.00 0.00 0.00 52 1020.9
20260906065426 21 238 1.6 3.2 0.00 0.00 0.00 52 1021.1
20260906064922 21 245 3.2 4.8 0.00 0.00 0.00 51 1021.1
20260906064418 22 208 4.8 8.0 0.00 0.00 0.00 51 1020.7
20260906063918 22 223 4.8 8.0 0.00 0.00 0.00 50 1020.9
20260906063413 22 246 3.2 3.2 0.00 0.00 0.00 49 1020.9
20260906062908 22 241 4.8 8.0 0.00 0.00 0.00 49 1021.1
20260906062408 22 252 1.6 1.6 0.00 0.00 0.00 48 1020.9
20260906061904 22 263 1.6 3.2 0.00 0.00 0.00 50 1021.1
20260906061400 21 183 4.8 4.8 0.00 0.00 0.00 54 1021.2
20260906060854 21 260 0.0 1.6 0.00 0.00 0.00 56 1021.2
20260906060352 21 264 1.6 8.0 0.00 0.00 0.00 57 1021.5
20260906055847 22 246 4.8 8.0 0.00 0.00 0.00 50 1021.8
20260906055343 23 259 1.6 3.2 0.00 0.00 0.00 46 1022.2
20260906054838 24 215 1.6 3.2 0.00 0.00 0.00 39 1022.2
20260906054333 24 300 4.8 9.7 0.00 0.00 0.00 39 1021.9
20260906053829 24 254 3.2 3.2 0.00 0.00 0.00 39 1021.9
20260906053325 24 246 1.6 1.6 0.00 0.00 0.00 40 1021.5
20260906052820 23 251 1.6 3.2 0.00 0.00 0.00 40 1021.5
20260906052316 23 255 0.0 0.0 0.00 0.00 0.00 40 1021.5
20260906051814 23 257 0.0 0.0 0.00 0.00 0.00 41 1021.4
20260906051313 23 263 0.0 0.0 0.00 0.00 0.00 41 1021.6
20260906050808 23 265 1.6 1.6 0.00 0.00 0.00 41 1021.8
20260906050303 23 252 0.0 0.0 0.00 0.00 0.00 41 1022.0
20260906045802 23 235 0.0 1.6 0.00 0.00 0.00 41 1021.9
20260906045256 23 236 0.0 0.0 0.00 0.00 0.00 40 1021.9
20260906044753 23 236 0.0 1.6 0.00 0.00 0.00 41 1021.8
20260906044247 23 239 0.0 1.6 0.00 0.00 0.00 42 1021.9
20260906043743 23 250 0.0 0.0 0.00 0.00 0.00 40 1022.0
20260906043239 23 253 0.0 0.0 0.00 0.00 0.00 40 1022.1
20260906042739 23 253 0.0 0.0 0.00 0.00 0.00 39 1022.1
20260906042238 24 255 0.0 0.0 0.00 0.00 0.00 37 1022.1
20260906041733 25 256 0.0 0.0 0.00 0.00 0.00 36 1022.4
20260906041229 24 116 3.2 3.2 0.00 0.00 0.00 36 1022.0
20260906040724 24 349 3.2 4.8 0.00 0.00 0.00 36 1021.9
20260906040219 25 304 0.0 1.6 0.00 0.00 0.00 36 1021.9
20260906035715 25 73 4.8 4.8 0.00 0.00 0.00 36 1021.9
20260906035210 24 299 0.0 1.6 0.00 0.00 0.00 36 1021.9
20260906034710 23 69 4.8 4.8 0.00 0.00 0.00 37 1021.4
20260906034205 23 279 0.0 0.0 0.00 0.00 0.00 37 1021.3
20260906033701 24 275 0.0 0.0 0.00 0.00 0.00 37 1021.1
20260906033200 24 275 0.0 0.0 0.00 0.00 0.00 37 1021.1
20260906032657 24 275 0.0 0.0 0.00 0.00 0.00 36 1021.2
20260906032152 25 275 0.0 0.0 0.00 0.00 0.00 36 1021.2
20260906031647 25 275 0.0 0.0 0.00 0.00 0.00 35 1020.9
20260906031143 25 275 0.0 0.0 0.00 0.00 0.00 34 1020.7
20260906030642 25 275 0.0 0.0 0.00 0.00 0.00 34 1020.8
20260906030137 25 276 0.0 1.6 0.00 0.00 0.00 34 1020.7
20260906025637 26 262 0.0 0.0 0.00 0.00 0.00 33 1020.6
20260906025136 26 261 0.0 0.0 0.00 0.00 0.00 33 1020.5
20260906024630 26 263 1.6 3.2 0.00 0.00 0.00 32 1020.7
20260906024125 26 272 1.6 1.6 0.00 0.00 0.00 32 1020.5
20260906023621 27 275 0.0 1.6 0.00 0.00 0.00 31 1020.6
20260906023120 27 266 1.6 1.6 0.00 0.00 0.00 31 1020.3
20260906022616 27 262 1.6 1.6 0.00 0.00 0.00 31 1020.3
20260906022111 27 272 1.6 3.2 0.00 0.00 0.00 30 1020.6
20260906021607 27 263 3.2 3.2 0.00 0.00 0.00 30 1020.5
20260906021106 27 261 3.2 3.2 0.00 0.00 0.00 29 1020.2
20260906020605 28 264 1.6 1.6 0.00 0.00 0.00 29 1020.1
20260906020100 28 262 3.2 4.8 0.00 0.00 0.00 28 1020.1
20260906015600 28 244 6.4 8.0 0.00 0.00 0.00 28 1020.0
20260906015059 28 265 0.0 1.6 0.00 0.00 0.00 30 1019.8
20260906014554 28 262 0.0 0.0 0.00 0.00 0.00 29 1019.8
20260906014050 28 258 0.0 0.0 0.00 0.00 0.00 28 1019.6
20260906013545 28 246 0.0 0.0 0.00 0.00 0.00 28 1019.5
20260906013041 28 264 0.0 0.0 0.00 0.00 0.00 27 1019.3
20260906012535 28 269 0.0 1.6 0.00 0.00 0.00 29 1019.4
20260906012035 28 253 0.0 0.0 0.00 0.00 0.00 29 1019.4
20260906011531 29 257 0.0 0.0 0.00 0.00 0.00 29 1019.6
20260906011031 30 265 0.0 0.0 0.00 0.00 0.00 29 1019.4
20260906010526 30 247 0.0 0.0 0.00 0.00 0.00 28 1019.4
20260906010023 30 249 0.0 0.0 0.00 0.00 0.00 27 1019.4
20260906005521 30 277 1.6 1.6 0.00 0.00 0.00 26 1019.5
20260906005020 31 237 1.6 1.6 0.00 0.00 0.00 25 1019.8
20260906004515 31 230 1.6 1.6 0.00 0.00 0.00 24 1019.6
20260906004010 32 254 0.0 0.0 0.00 0.00 0.00 23 1019.3
20260906003505 32 234 0.0 0.0 0.00 0.00 0.00 23 1019.5
20260906003001 32 234 1.6 1.6 0.00 0.00 0.00 22 1019.4
20260906002500 33 224 1.6 1.6 0.00 0.00 0.00 22 1019.4
20260906001955 33 245 0.0 0.0 0.00 0.00 0.00 21 1019.3
20260906001451 33 230 0.0 1.6 0.00 0.00 0.00 21 1019.5
20260906000946 34 231 0.0 0.0 0.00 0.00 0.00 21 1019.2
20260906000441 33 248 0.0 1.6 0.00 0.00 0.00 20 1019.3
20260905235936 33 248 4.8 4.8 0.00 0.00 0.00 21 1019.0
20260905235436 33 229 1.6 1.6 0.00 0.00 0.00 21 1019.0
20260905234931 33 245 1.6 1.6 0.00 0.00 0.00 21 1018.9
20260905234426 33 252 0.0 1.6 0.00 0.00 0.00 21 1019.2
20260905233920 33 243 0.0 0.0 0.00 0.00 0.00 21 1019.2
20260905233416 33 255 0.0 0.0 0.00 0.00 0.00 21 1019.3
20260905232915 33 255 1.6 3.2 0.00 0.00 0.00 21 1019.3
20260905232411 33 247 1.6 3.2 0.00 0.00 0.00 22 1019.2
20260905231906 33 253 1.6 1.6 0.00 0.00 0.00 21 1019.3
20260905231402 33 242 1.6 1.6 0.00 0.00 0.00 20 1019.2
20260905230859 33 232 1.6 1.6 0.00 0.00 0.00 21 1019.0
20260905230350 33 281 3.2 3.2 0.00 0.00 0.00 21 1019.4
20260905225849 33 251 0.0 1.6 0.00 0.00 0.00 21 1019.2
20260905225344 33 255 1.6 1.6 0.00 0.00 0.00 21 1019.0
20260905224839 33 265 0.0 1.6 0.00 0.00 0.00 20 1019.0
20260905224335 33 268 1.6 1.6 0.00 0.00 0.00 20 1019.3
20260905223829 33 249 0.0 0.0 0.00 0.00 0.00 20 1018.9
20260905223327 34 264 4.8 9.7 0.00 0.00 0.00 20 1019.0
20260905222822 35 262 3.2 3.2 0.00 0.00 0.00 19 1019.2
20260905222321 34 253 1.6 3.2 0.00 0.00 0.00 20 1019.0
20260905221817 35 243 0.0 1.6 0.00 0.00 0.00 20 1019.2
20260905221314 34 231 0.0 0.0 0.00 0.00 0.00 20 1019.3
20260905220809 32 269 0.0 1.6 0.00 0.00 0.00 21 1018.9
20260905220306 32 289 3.2 3.2 0.00 0.00 0.00 21 1019.3
20260905215804 33 255 4.8 4.8 0.00 0.00 0.00 21 1019.4
20260905215300 34 256 3.2 3.2 0.00 0.00 0.00 20 1019.2
20260905214756 35 252 0.0 0.0 0.00 0.00 0.00 19 1019.5